[[{"header":{"parameterUnit":"m.s-1","parameterCategory":1,"la1":30.2991,"la2":30.254,"lo1":-89.0895,"lo2":-89.0444,"dy":0.0017,"dx":0.0017,"nx":28,"ny":28,"refTime":"2025-12-15T09:00:00:Z","depth":0,"parameterNumber":2,"parameterNumberName":"U-component_of_WINDS"},"data":[0,0,0,0,0,0,0,0,0,0,0,0,0,0,0,0,0,0,0,0,0,0,0,0,0,0,0,0,0,0,0,0,0,0,0,0,0,0,0,0,0,0,0,0,0,0,0,0,0,0,0,0,0,0,0,0,0,0,-3.9782,-3.9783,0,-3.9865,-3.9866,-3.9867,-3.9778,-3.9774,-3.9771,-3.9768,-3.9852,-3.9858,-3.9863,0,0,0,0,0,0,0,0,0,0,0,0,0,-3.9548,-3.9553,-3.9782,-3.9783,-3.9784,-3.9865,-3.9866,-3.9867,-3.9778,-3.9774,-3.977,-3.9766,-3.985,-3.9857,-3.9863,0,0,0,0,0,0,0,0,0,0,0,0,0,-3.9642,-3.9554,-3.9782,-3.975,-3.9748,-3.9864,-3.9866,-3.9867,-3.9779,-3.9774,-3.9769,-3.9764,-3.9848,-3.9856,-3.9864,-4.0017,0,0,-3.9889,-3.9893,0,0,0,0,0,0,0,0,-3.9637,-3.9651,-3.9754,-3.9752,-3.975,-3.9806,-3.9814,-3.9917,-3.978,-3.9767,-3.9768,-3.9762,-3.9841,-3.9849,-3.9876,-4.0021,-4.0024,-3.989,-3.9895,-3.9898,-3.9901,0,0,0,0,0,0,0,-3.963,-3.9647,-3.9815,-3.9755,-3.9753,-3.9731,-3.9739,-3.9833,-3.9832,-3.9768,-3.9762,-3.9773,-3.9839,-3.9868,-3.9877,-4.0026,-3.989,-3.9897,-3.9902,-3.9905,-4.0298,-4.0304,0,0,0,0,0,0,-3.9628,-3.9642,-3.9812,-3.9817,-3.968,-3.974,-3.9748,-3.9793,-3.983,-3.9831,-3.9777,-3.9768,-3.9857,-3.9868,-3.988,-4.0059,-3.9898,-3.9906,-3.9911,-4.0293,-4.0299,-4.0306,0,0,0,0,0,0,-3.9623,-3.9644,-3.9809,-3.9728,-3.9747,-3.9749,-3.98,-3.9797,-3.9827,-3.9837,-3.9837,-3.9807,-3.9853,-3.9869,-3.9983,-4.0061,-3.991,-3.9917,-4.0286,-4.0295,-4.0303,-4.0421,0,0,0,0,0,0,-3.9616,-3.9642,-3.97,-3.973,-3.9752,-3.9911,-3.9805,-3.9803,-3.9841,-3.983,-3.9865,-3.9866,-3.9851,-3.9971,-3.9991,-4.007,-3.9923,-4.0279,-4.029,-4.03,-4.041,-4.0432,-4.0451,0,0,0,0,0,-3.9608,-3.9731,-3.9704,-3.9725,-3.9825,-3.9916,-3.9928,-3.9908,-3.9848,-3.9906,-3.9912,-3.9865,-4.005,-3.9984,-4.0005,-4.0088,-4.0274,-4.0287,-4.0299,-4.0401,-4.0428,-4.0451,0,0,0,0,0,0,-3.971,-3.9734,-3.9704,-3.984,-3.9877,-3.9901,-3.9973,-3.9937,-3.9992,-3.9979,-3.9951,-3.996,-4.0081,-4.0096,-4.0022,-4.0236,-4.0152,-4.017,-4.0222,-4.0248,-4.0268,-4.0261,-3.993,0,0,0,0,0,-3.9749,-3.9821,-3.9838,-3.9956,-3.9976,-3.9972,-4.0011,-3.9992,-4.0028,-4.0043,-4.0058,-4.0096,-4.0162,-4.0206,-4.0268,-4.0412,-4.0418,-4.0479,-4.05,-4.0517,-4.0532,-4.0608,-4.0635,-4.0347,-4.0346,-4.0346,0,0,-3.9829,-3.985,-3.9898,-3.9977,-4.0003,-4.0078,-3.9985,-4.0069,-4.0124,-4.0056,-4.0164,-4.0177,-4.0217,-4.0347,-4.0405,-4.0363,-4.0613,-4.0533,-4.0546,-4.0552,-4.0623,-4.0651,-4.0675,-4.0355,-4.0354,-4.0352,0,0,-4.0011,-4.0036,-4.0136,-4.0164,-4.0205,-4.0201,-4.0226,-4.0256,-4.0261,-4.037,-4.032,-4.0386,-4.0501,-4.0531,-4.0561,-4.0756,-4.0714,-4.0777,-4.0884,-4.0959,-4.0981,-4.1001,-4.1069,-4.1094,-4.0792,-4.0793,-4.0793,0,-4.0105,-4.0216,-4.0192,-4.0279,-4.0315,-4.0257,-4.0358,-4.0387,-4.0446,-4.0471,-4.0424,-4.0567,-4.059,-4.0725,-4.0772,-4.08,-4.0826,-4.0772,-4.098,-4.1,-4.1018,-4.1082,-4.1108,-4.08,-4.0799,-4.0798,-4.0798,0,-4.0329,-4.0406,-4.0482,-4.054,-4.0585,-4.0679,-4.0669,-4.0717,-4.0694,-4.0696,-4.0807,-4.0833,-4.0898,-4.0929,-4.0908,-4.1062,-4.1034,-4.0984,-4.0898,-4.1053,-4.1113,-4.1138,-4.081,-4.0808,-4.0805,-4.0804,0,0,-4.0577,-4.062,-4.0648,-4.0673,-4.0714,-4.0774,-4.0865,-4.0928,-4.0969,-4.1013,-4.1087,-4.1186,-4.114,-4.1175,-4.1157,-4.1223,-4.1373,-4.1164,-4.1164,-4.12,-4.1542,-4.1578,-4.1607,-4.1347,-4.1351,-4.1355,-4.1538,0,-4.0759,-4.0916,-4.0897,-4.1047,-4.1118,-4.1064,-4.1143,-4.1177,-4.1181,-4.1242,-4.1247,-4.1316,-4.1251,-4.1271,-4.1334,-4.1341,-4.1441,-4.1328,-4.1414,-4.1418,-4.1404,-4.1638,-4.1676,-4.1847,-4.1561,-4.1565,-4.1568,0,-4.0992,-4.1042,-4.1199,-4.1228,-4.1257,-4.1329,-4.1385,-4.1444,-4.1481,-4.1479,-4.1519,-4.1489,-4.158,-4.1494,-4.1618,-4.1542,-4.1577,-4.1586,-4.1592,-4.1597,-4.1501,-4.1648,-4.1902,-4.1927,-4.1605,-4.1602,-4.16,0,-4.1154,-4.1262,-4.1369,-4.1393,-4.143,-4.1481,-4.1499,-4.1531,-4.157,-4.162,-4.1645,-4.1705,-4.1738,-4.1785,-4.1772,-4.1711,-4.1899,-4.1812,-4.1899,-4.1899,-4.1939,-4.1936,-4.22,-4.1965,-4.1965,-4.1964,-4.1964,0,-4.1358,-4.1456,-4.1443,-4.1509,-4.1616,-4.1594,-4.1701,-4.1713,-4.1742,-4.1808,-4.1767,-4.1831,-4.1811,-4.1874,-4.1865,-4.1968,-4.1984,-4.1984,-4.198,-4.1987,-4.1986,-4.2007,-4.1994,-4.1971,-4.197,-4.1968,-4.1967,0,-4.1557,-4.1552,-4.1665,-4.1692,-4.17,-4.1778,-4.18,-4.1862,-4.1864,-4.1949,-4.1967,-4.197,-4.2041,-4.2034,-4.2114,-4.2108,-4.2236,-4.2219,-4.2223,-4.2218,-4.2304,-4.2296,-4.2589,-4.2626,-4.237,-4.2372,-4.2374,0,-4.1686,-4.176,-4.1794,-4.1835,-4.1857,-4.1925,-4.1964,-4.1946,-4.1989,-4.2037,-4.2093,-4.2161,-4.2214,-4.2331,-4.2339,-4.2401,-4.2383,-4.2482,-4.2392,-4.2396,-4.2382,-4.2377,-4.2384,-4.2499,-4.2502,-4.2504,-4.2506,0,-4.1916,-4.191,-4.1968,-4.2027,-4.2075,-4.212,-4.2161,-4.2198,-4.2183,-4.2234,-4.2306,-4.2348,-4.243,-4.2497,-4.2555,-4.2573,-4.2538,-4.2535,-4.2557,-4.2564,-4.2562,-4.2562,-4.2269,-4.2527,-4.2525,-4.2524,-4.2523,-4.2522,-4.2082,-4.2144,-4.2178,-4.2244,-4.2273,-4.2312,-4.2371,-4.238,-4.244,-4.2505,-4.2491,-4.2572,-4.2607,-4.2681,-4.2706,-4.2769,-4.2733,-4.2767,-4.2775,-4.2783,-4.2792,-4.2554,-4.278,-4.2779,-4.2779,-4.2778,-4.2778,0,-4.2307,-4.2326,-4.2388,-4.2446,-4.2498,-4.2461,-4.2504,-4.255,-4.2622,-4.2658,-4.2711,-4.2794,-4.2859,-4.2873,-4.2936,-4.2984,-4.2969,-4.3,-4.2996,-4.3,-4.2821,-4.2794,-4.3011,-4.3011,-4.3011,-4.3011,-4.3011,-4.3011,-4.243,-4.2533,-4.2532,-4.2649,-4.2667,-4.2746,-4.2774,-4.2809,-4.2837,-4.2932,-4.2986,-4.2995,-4.3021,-4.3085,-4.3144,-4.3146,-4.317,-4.3208,-4.3204,-4.3036,-4.3013,-4.299,-4.2965,-4.3214,-4.3214,-4.3377,-4.3378,-4.338]},{"header":{"parameterUnit":"m.s-1","parameterCategory":1,"la1":30.2991,"la2":30.254,"lo1":-89.0895,"lo2":-89.0444,"dy":0.0017,"dx":0.0017,"nx":28,"ny":28,"refTime":"2025-12-15T09:00:00:Z","depth":0,"parameterNumber":3,"parameterNumberName":"V-component_of_WINDS"},"data":[0,0,0,0,0,0,0,0,0,0,0,0,0,0,0,0,0,0,0,0,0,0,0,0,0,0,0,0,0,0,0,0,0,0,0,0,0,0,0,0,0,0,0,0,0,0,0,0,0,0,0,0,0,0,0,0,0,0,0.3737,0.3738,0,0.3784,0.3785,0.3785,0.3832,0.3833,0.3834,0.3834,0.3878,0.3879,0.388,0,0,0,0,0,0,0,0,0,0,0,0,0,0.3685,0.3686,0.3737,0.3738,0.3739,0.3784,0.3785,0.3785,0.3832,0.3833,0.3834,0.3834,0.3878,0.3879,0.388,0,0,0,0,0,0,0,0,0,0,0,0,0,0.3717,0.3686,0.3737,0.3767,0.3771,0.3784,0.3785,0.3786,0.3832,0.3833,0.3834,0.3835,0.3878,0.3879,0.388,0.3866,0,0,0.3882,0.3883,0,0,0,0,0,0,0,0,0.3715,0.3719,0.3762,0.3765,0.3769,0.3804,0.3783,0.3812,0.3832,0.3809,0.3834,0.3835,0.3852,0.3856,0.3862,0.3868,0.387,0.3883,0.3883,0.3883,0.3884,0,0,0,0,0,0,0,0.3713,0.3717,0.3756,0.3763,0.3767,0.3778,0.3783,0.3789,0.3824,0.3811,0.3814,0.3819,0.3854,0.3861,0.3863,0.3871,0.3882,0.3883,0.3884,0.3884,0.3868,0.3867,0,0,0,0,0,0,0.3707,0.3715,0.3754,0.3757,0.3744,0.3778,0.3784,0.3791,0.3825,0.3831,0.3818,0.3821,0.3859,0.3862,0.3865,0.3852,0.3883,0.3884,0.3885,0.3869,0.3868,0.3867,0,0,0,0,0,0,0.3706,0.371,0.3752,0.3737,0.3744,0.3778,0.3785,0.3792,0.3799,0.3831,0.3837,0.3819,0.386,0.3864,0.3866,0.3854,0.3885,0.3885,0.387,0.3869,0.3867,0.3824,0,0,0,0,0,0,0.3704,0.3709,0.3705,0.3737,0.3744,0.3753,0.3785,0.3792,0.38,0.3805,0.3833,0.3838,0.3861,0.3864,0.3867,0.3856,0.3886,0.3871,0.3869,0.3868,0.3827,0.3822,0.3817,0,0,0,0,0,0.3702,0.369,0.3705,0.3709,0.374,0.3752,0.3756,0.3784,0.3799,0.3795,0.3816,0.3837,0.3855,0.3864,0.3867,0.3856,0.3872,0.387,0.3868,0.3829,0.3823,0.3817,0,0,0,0,0,0,0.3654,0.3695,0.3711,0.371,0.3727,0.376,0.3756,0.3776,0.3789,0.3792,0.3825,0.3831,0.3829,0.3843,0.3852,0.3845,0.3867,0.3865,0.3836,0.383,0.3825,0.3822,0.3887,0,0,0,0,0,0.3644,0.3652,0.3686,0.3681,0.369,0.3721,0.3727,0.3747,0.3767,0.3774,0.3795,0.3811,0.3821,0.3826,0.3836,0.3829,0.3836,0.3823,0.3818,0.3814,0.3812,0.3809,0.3804,0.386,0.386,0.386,0,0,0.3622,0.3645,0.3648,0.3673,0.3689,0.3695,0.3727,0.3732,0.3737,0.3774,0.3778,0.3793,0.3814,0.3812,0.3811,0.3823,0.3798,0.3811,0.3807,0.3808,0.3807,0.3801,0.3797,0.3858,0.3858,0.3859,0,0,0.3586,0.3604,0.3603,0.3618,0.3643,0.3664,0.3663,0.3693,0.3706,0.371,0.3738,0.3744,0.3759,0.3773,0.3782,0.3751,0.3772,0.3754,0.3728,0.3725,0.372,0.3716,0.3706,0.3701,0.3752,0.3752,0.3751,0,0.3555,0.3568,0.3599,0.3603,0.3613,0.3648,0.3646,0.366,0.3685,0.3691,0.3704,0.3725,0.3741,0.3742,0.3735,0.3741,0.3741,0.3751,0.3719,0.3715,0.3712,0.3702,0.3698,0.3749,0.3749,0.375,0.375,0,0.3529,0.3537,0.3532,0.3558,0.3568,0.3568,0.3599,0.3604,0.3624,0.3643,0.3647,0.3668,0.3683,0.3685,0.3703,0.3688,0.3695,0.3713,0.3735,0.3704,0.3695,0.3692,0.3746,0.3747,0.3747,0.3748,0,0,0.3464,0.3508,0.3506,0.3518,0.3548,0.3554,0.3556,0.3573,0.3577,0.3593,0.3596,0.3608,0.3625,0.3635,0.3655,0.3652,0.3627,0.3671,0.3672,0.3662,0.3612,0.3599,0.3594,0.3641,0.364,0.364,0.3611,0,0.3433,0.3441,0.3469,0.3468,0.3476,0.351,0.3512,0.3529,0.3547,0.3555,0.3575,0.3584,0.3605,0.3611,0.361,0.363,0.3618,0.3633,0.3643,0.3643,0.3637,0.359,0.3576,0.3547,0.3608,0.3607,0.3607,0,0.3398,0.3414,0.3414,0.3444,0.3449,0.345,0.3468,0.3475,0.3496,0.3509,0.3521,0.3543,0.3547,0.3568,0.3573,0.3582,0.3588,0.3598,0.3598,0.36,0.3623,0.359,0.3539,0.3535,0.3601,0.3602,0.3602,0,0.3352,0.3373,0.3376,0.3385,0.342,0.342,0.3435,0.3456,0.3465,0.3479,0.3485,0.3499,0.3507,0.3517,0.3543,0.3556,0.3544,0.3568,0.3555,0.3554,0.3551,0.3551,0.35,0.3554,0.3555,0.3555,0.3555,0,0.3314,0.3313,0.3356,0.3357,0.3357,0.3389,0.3387,0.3404,0.3423,0.3428,0.3457,0.3461,0.3495,0.3502,0.3522,0.3523,0.3526,0.3536,0.3542,0.3534,0.3533,0.3538,0.3541,0.3554,0.3554,0.3554,0.3554,0,0.3262,0.3291,0.3296,0.3329,0.3337,0.3335,0.3363,0.3365,0.3385,0.3391,0.3394,0.3425,0.3436,0.3462,0.3479,0.3492,0.3488,0.3497,0.3481,0.3485,0.3471,0.3472,0.3421,0.3417,0.3474,0.3473,0.3472,0,0.3237,0.3237,0.327,0.3276,0.329,0.3299,0.3308,0.3339,0.3347,0.3371,0.337,0.3383,0.3395,0.3409,0.3433,0.3445,0.3456,0.3437,0.3458,0.345,0.3456,0.3456,0.3456,0.3433,0.3432,0.3431,0.3431,0,0.3189,0.3203,0.3215,0.3233,0.3243,0.3257,0.3274,0.3277,0.3311,0.3318,0.333,0.3339,0.3357,0.3369,0.3386,0.3399,0.342,0.3424,0.3422,0.3414,0.3405,0.341,0.3469,0.3425,0.3426,0.3426,0.3427,0.3427,0.315,0.3151,0.3175,0.3188,0.3204,0.3218,0.3223,0.3244,0.3254,0.3272,0.3289,0.3299,0.3319,0.3344,0.3356,0.3363,0.3374,0.3371,0.337,0.3369,0.3366,0.3404,0.3366,0.3366,0.3367,0.3367,0.3367,0,0.3104,0.3121,0.3132,0.3155,0.3164,0.3185,0.3204,0.321,0.3219,0.3237,0.3248,0.3261,0.3273,0.3297,0.3311,0.3313,0.3323,0.3315,0.3315,0.3318,0.3355,0.3355,0.3307,0.3307,0.3307,0.3307,0.3307,0.3307,0.3081,0.3085,0.3102,0.3114,0.3131,0.3142,0.3151,0.3164,0.3179,0.3192,0.3203,0.3219,0.3239,0.3255,0.3267,0.3273,0.3277,0.3266,0.3276,0.331,0.3316,0.3321,0.3322,0.3267,0.3267,0.3239,0.3239,0.3239]}]]